MST,Max TemperatureF,Mean TemperatureF,Min TemperatureF,Max Dew PointF,MeanDew PointF,Min DewpointF,Max Humidity, Mean Humidity, Min Humidity, Max Sea Level PressureIn, Mean Sea Level PressureIn, Min Sea Level PressureIn, Max VisibilityMiles, Mean VisibilityMiles, Min VisibilityMiles, Max Wind SpeedMPH, Mean Wind SpeedMPH, Max Gust SpeedMPH,PrecipitationIn, CloudCover, Events, WindDirDegrees
2013-1-1,34,16,-2,18,5,-4,88,66,32,30.47,30.30,30.07,,,,10,3,,0.00,,,258
2013-1-2,41,19,-3,12,2,-8,80,60,26,30.47,30.32,30.12,,,,13,3,,0.21,,,251
2013-1-3,47,28,9,11,7,2,79,48,19,30.17,30.10,30.04,,,,12,3,,0.00,,,231
2013-1-4,40,22,5,18,8,-1,83,66,32,30.24,30.10,29.99,,,,7,2,,0.00,,,251
2013-1-5,39,19,-1,19,6,-5,86,66,32,30.31,30.14,29.85,,,,14,2,,0.00,,,230
2013-1-6,39,24,8,19,8,-2,76,47,19,29.83,29.76,29.69,,,,17,6,,0.11,,,249
2013-1-7,35,14,-8,18,3,-11,82,64,23,29.88,29.70,29.50,,,,12,2,,0.00,,,271
2013-1-8,34,22,10,12,4,-1,61,37,16,29.90,29.78,29.57,,,,17,8,,0.27,,,242
2013-1-9,43,24,6,30,14,1,90,73,45,29.81,29.61,29.44,,,,14,4,,0.03,,,280
2013-1-10,22,14,5,18,9,2,88,83,73,30.28,30.11,29.81,,,,12,7,,0.08,,,356
2013-1-11,10,-6,-22,3,-15,-28,85,74,57,30.38,30.30,30.24,,,,2,0,,0.02,,,264
2013-1-12,22,2,-18,9,2,-22,84,75,55,30.35,30.28,30.24,,,,10,2,,0.00,,,270
2013-1-13,21,13,5,14,11,3,88,82,68,30.32,30.25,30.19,,,,6,3,,0.03,,,255
2013-1-14,38,22,6,31,19,3,91,85,69,30.16,29.99,29.90,,,,13,1,,0.12,,,263
2013-1-15,50,36,22,29,23,18,90,54,19,29.94,29.89,29.84,,,,14,5,,0.02,,,249
2013-1-16,39,26,12,27,18,10,92,65,29,30.36,30.13,29.85,,,,12,5,,0.00,,,259
2013-1-17,50,28,5,24,14,2,91,63,23,30.26,30.02,29.87,,,,17,3,,0.03,,,237
2013-1-18,48,34,19,26,18,13,82,56,29,30.12,29.85,29.74,,,,14,4,,0.00,,,265
2013-1-19,30,20,11,20,15,6,85,75,54,30.61,30.32,30.16,,,,18,8,,0.28,,,44
2013-1-20,11,6,0,4,-1,-5,82,76,66,30.71,30.61,30.43,,,,12,5,,0.35,,,58
2013-1-21,29,15,1,18,8,-2,87,76,54,30.41,30.22,30.08,,,,6,1,,0.18,,,317
2013-1-22,20,10,1,12,7,-2,91,84,74,30.32,30.23,30.14,,,,5,1,,0.00,,,97
2013-1-23,14,11,7,9,7,4,88,83,69,30.30,30.07,29.81,,,,13,7,,0.27,,,116
2013-1-24,40,22,3,23,13,0,91,72,40,30.06,29.96,29.81,,,,5,2,,0.17,,,241
2013-1-25,42,25,8,16,10,1,83,55,19,29.95,29.88,29.82,,,,18,3,,0.00,,,249
2013-1-26,33,14,-4,10,0,-9,82,66,32,29.97,29.92,29.86,,,,5,2,,0.05,,,268
2013-1-27,39,20,0,12,3,-4,84,64,25,29.94,29.86,29.78,,,,2,0,,0.00,,,254
2013-1-28,32,12,-7,14,2,-11,87,73,41,29.99,29.86,29.75,,,,9,2,,0.00,,,316
2013-1-29,10,-1,-12,3,-13,-19,84,68,43,30.45,30.27,30.02,,,,16,7,,0.03,,,26
2013-1-30,12,2,-8,7,-2,-6,82,77,66,30.29,30.17,29.98,,,,9,3,,0.03,,,28
2013-1-31,33,16,0,25,14,-2,93,80,68,30.27,30.11,30.00,,,,4,0,,0.03,,,260